owner,sensor,date,latitude,longitude,sea_surface_height_above_sea_level,qcFlag 
TCOON,ioos:station:TCOON:524:1,2016-04-01T00:18:00Z,29.8672,-93.9310,2.04,1111122 
TCOON,ioos:station:TCOON:524:1,2016-04-01T01:18:00Z,29.8672,-93.9310,2.04,1111122 
TCOON,ioos:station:TCOON:524:1,2016-04-01T02:18:00Z,29.8672,-93.9310,2.054,1111122 
TCOON,ioos:station:TCOON:524:1,2016-04-01T03:18:00Z,29.8672,-93.9310,2.025,1111122 
TCOON,ioos:station:TCOON:524:1,2016-04-01T04:18:00Z,29.8672,-93.9310,1.99,1111122 
TCOON,ioos:station:TCOON:524:1,2016-04-01T05:18:00Z,29.8672,-93.9310,1.974,1111122 
TCOON,ioos:station:TCOON:524:1,2016-04-01T06:18:00Z,29.8672,-93.9310,1.902,1111122 
TCOON,ioos:station:TCOON:524:1,2016-04-01T07:18:00Z,29.8672,-93.9310,1.867,1111122 
TCOON,ioos:station:TCOON:524:1,2016-04-01T08:18:00Z,29.8672,-93.9310,1.819,1111122 
TCOON,ioos:station:TCOON:524:1,2016-04-01T09:18:00Z,29.8672,-93.9310,1.78,1111122 
TCOON,ioos:station:TCOON:524:1,2016-04-01T10:18:00Z,29.8672,-93.9310,1.757,1111122 
TCOON,ioos:station:TCOON:524:1,2016-04-01T11:18:00Z,29.8672,-93.9310,1.744,1111122 
TCOON,ioos:station:TCOON:524:1,2016-04-01T12:18:00Z,29.8672,-93.9310,1.751,1111122 
TCOON,ioos:station:TCOON:524:1,2016-04-01T13:18:00Z,29.8672,-93.9310,1.739,1111122 
TCOON,ioos:station:TCOON:524:1,2016-04-01T14:18:00Z,29.8672,-93.9310,1.629,1111122 
TCOON,ioos:station:TCOON:524:1,2016-04-01T15:18:00Z,29.8672,-93.9310,1.751,1111122 
TCOON,ioos:station:TCOON:524:1,2016-04-01T16:18:00Z,29.8672,-93.9310,1.801,1111122 
TCOON,ioos:station:TCOON:524:1,2016-04-01T17:24:00Z,29.8672,-93.9310,1.863,1111122 
TCOON,ioos:station:TCOON:524:1,2016-04-01T18:18:00Z,29.8672,-93.9310,1.826,1111122 
TCOON,ioos:station:TCOON:524:1,2016-04-01T19:18:00Z,29.8672,-93.9310,1.902,1111122 
TCOON,ioos:station:TCOON:524:1,2016-04-01T20:18:00Z,29.8672,-93.9310,1.855,1111122 
TCOON,ioos:station:TCOON:524:1,2016-04-01T21:18:00Z,29.8672,-93.9310,1.812,1111122 
TCOON,ioos:station:TCOON:524:1,2016-04-01T22:18:00Z,29.8672,-93.9310,1.805,1111122 
TCOON,ioos:station:TCOON:524:1,2016-04-01T23:18:00Z,29.8672,-93.9310,1.763,1111122 
TCOON,ioos:station:TCOON:524:1,2016-04-02T00:18:00Z,29.8672,-93.9310,1.727,1111122 
TCOON,ioos:station:TCOON:524:1,2016-04-02T01:18:00Z,29.8672,-93.9310,1.719,1111122 
TCOON,ioos:station:TCOON:524:1,2016-04-02T02:18:00Z,29.8672,-93.9310,1.691,1111122 
TCOON,ioos:station:TCOON:524:1,2016-04-02T03:18:00Z,29.8672,-93.9310,1.72,1111122 
TCOON,ioos:station:TCOON:524:1,2016-04-02T04:18:00Z,29.8672,-93.9310,1.717,1111122 
TCOON,ioos:station:TCOON:524:1,2016-04-02T05:18:00Z,29.8672,-93.9310,1.64,1111122 
TCOON,ioos:station:TCOON:524:1,2016-04-02T06:24:00Z,29.8672,-93.9310,1.622,1111122 
TCOON,ioos:station:TCOON:524:1,2016-04-02T07:18:00Z,29.8672,-93.9310,1.666,1111122 
TCOON,ioos:station:TCOON:524:1,2016-04-02T08:18:00Z,29.8672,-93.9310,1.624,1111122 
TCOON,ioos:station:TCOON:524:1,2016-04-02T09:18:00Z,29.8672,-93.9310,1.571,1111122 
TCOON,ioos:station:TCOON:524:1,2016-04-02T10:18:00Z,29.8672,-93.9310,1.513,1111122 
TCOON,ioos:station:TCOON:524:1,2016-04-02T11:18:00Z,29.8672,-93.9310,1.482,1111122 
TCOON,ioos:station:TCOON:524:1,2016-04-02T12:18:00Z,29.8672,-93.9310,1.463,1111122 
TCOON,ioos:station:TCOON:524:1,2016-04-02T13:18:00Z,29.8672,-93.9310,1.459,1111122 
TCOON,ioos:station:TCOON:524:1,2016-04-02T14:18:00Z,29.8672,-93.9310,1.479,1111122 
TCOON,ioos:station:TCOON:524:1,2016-04-02T15:18:00Z,29.8672,-93.9310,1.566,1111122 
TCOON,ioos:station:TCOON:524:1,2016-04-02T16:18:00Z,29.8672,-93.9310,1.6,1111122 
TCOON,ioos:station:TCOON:524:1,2016-04-02T17:18:00Z,29.8672,-93.9310,1.62,1111122 
TCOON,ioos:station:TCOON:524:1,2016-04-02T18:18:00Z,29.8672,-93.9310,1.709,1111122 
TCOON,ioos:station:TCOON:524:1,2016-04-02T19:18:00Z,29.8672,-93.9310,1.695,1111122 
TCOON,ioos:station:TCOON:524:1,2016-04-02T20:18:00Z,29.8672,-93.9310,1.762,1111122 
TCOON,ioos:station:TCOON:524:1,2016-04-02T21:18:00Z,29.8672,-93.9310,1.794,1111122 
TCOON,ioos:station:TCOON:524:1,2016-04-02T22:18:00Z,29.8672,-93.9310,1.78,1111122 
TCOON,ioos:station:TCOON:524:1,2016-04-02T23:18:00Z,29.8672,-93.9310,1.745,1111122 
TCOON,ioos:station:TCOON:524:1,2016-04-03T00:18:00Z,29.8672,-93.9310,1.765,1111122 
TCOON,ioos:station:TCOON:524:1,2016-04-03T01:18:00Z,29.8672,-93.9310,1.648,1111122 
TCOON,ioos:station:TCOON:524:1,2016-04-03T02:18:00Z,29.8672,-93.9310,1.712,1111122 
TCOON,ioos:station:TCOON:524:1,2016-04-03T03:18:00Z,29.8672,-93.9310,1.739,1111122 
TCOON,ioos:station:TCOON:524:1,2016-04-03T04:18:00Z,29.8672,-93.9310,1.725,1111122 
TCOON,ioos:station:TCOON:524:1,2016-04-03T05:18:00Z,29.8672,-93.9310,1.702,1111122 
TCOON,ioos:station:TCOON:524:1,2016-04-03T06:18:00Z,29.8672,-93.9310,1.736,1111122 
TCOON,ioos:station:TCOON:524:1,2016-04-03T07:18:00Z,29.8672,-93.9310,1.709,1111122 
TCOON,ioos:station:TCOON:524:1,2016-04-03T08:18:00Z,29.8672,-93.9310,1.661,1111122 
TCOON,ioos:station:TCOON:524:1,2016-04-03T09:18:00Z,29.8672,-93.9310,1.63,1111122 
TCOON,ioos:station:TCOON:524:1,2016-04-03T10:18:00Z,29.8672,-93.9310,1.599,1111122 
TCOON,ioos:station:TCOON:524:1,2016-04-03T11:18:00Z,29.8672,-93.9310,1.549,1111122 
TCOON,ioos:station:TCOON:524:1,2016-04-03T12:18:00Z,29.8672,-93.9310,1.517,1111122 
TCOON,ioos:station:TCOON:524:1,2016-04-03T13:18:00Z,29.8672,-93.9310,1.524,1111122 
TCOON,ioos:station:TCOON:524:1,2016-04-03T14:18:00Z,29.8672,-93.9310,1.537,1111122 
TCOON,ioos:station:TCOON:524:1,2016-04-03T15:18:00Z,29.8672,-93.9310,1.593,1111122 
TCOON,ioos:station:TCOON:524:1,2016-04-03T16:18:00Z,29.8672,-93.9310,1.66,1111122 
TCOON,ioos:station:TCOON:524:1,2016-04-03T17:18:00Z,29.8672,-93.9310,1.675,1111122 
TCOON,ioos:station:TCOON:524:1,2016-04-03T18:18:00Z,29.8672,-93.9310,1.762,1111122 
TCOON,ioos:station:TCOON:524:1,2016-04-03T19:18:00Z,29.8672,-93.9310,1.793,1111122 
TCOON,ioos:station:TCOON:524:1,2016-04-03T20:18:00Z,29.8672,-93.9310,1.814,1111122 
TCOON,ioos:station:TCOON:524:1,2016-04-03T21:18:00Z,29.8672,-93.9310,1.837,1111122 
TCOON,ioos:station:TCOON:524:1,2016-04-03T22:18:00Z,29.8672,-93.9310,1.808,1111122 
TCOON,ioos:station:TCOON:524:1,2016-04-03T23:18:00Z,29.8672,-93.9310,1.858,1111122 
TCOON,ioos:station:TCOON:524:1,2016-04-04T00:18:00Z,29.8672,-93.9310,1.844,1111122 
TCOON,ioos:station:TCOON:524:1,2016-04-04T01:18:00Z,29.8672,-93.9310,1.796,1111122 
TCOON,ioos:station:TCOON:524:1,2016-04-04T02:18:00Z,29.8672,-93.9310,1.81,1111122 
TCOON,ioos:station:TCOON:524:1,2016-04-04T03:18:00Z,29.8672,-93.9310,1.834,1111122 
TCOON,ioos:station:TCOON:524:1,2016-04-04T04:18:00Z,29.8672,-93.9310,1.829,1111122 
TCOON,ioos:station:TCOON:524:1,2016-04-04T05:18:00Z,29.8672,-93.9310,1.842,1111122 
TCOON,ioos:station:TCOON:524:1,2016-04-04T06:18:00Z,29.8672,-93.9310,1.843,1111122 
TCOON,ioos:station:TCOON:524:1,2016-04-04T07:18:00Z,29.8672,-93.9310,1.848,1111122 
TCOON,ioos:station:TCOON:524:1,2016-04-04T08:18:00Z,29.8672,-93.9310,1.839,1111122 
TCOON,ioos:station:TCOON:524:1,2016-04-04T09:18:00Z,29.8672,-93.9310,1.803,1111122 
TCOON,ioos:station:TCOON:524:1,2016-04-04T10:18:00Z,29.8672,-93.9310,1.756,1111122 
TCOON,ioos:station:TCOON:524:1,2016-04-04T11:18:00Z,29.8672,-93.9310,1.687,1111122 
TCOON,ioos:station:TCOON:524:1,2016-04-04T12:18:00Z,29.8672,-93.9310,1.639,1111122 
TCOON,ioos:station:TCOON:524:1,2016-04-04T13:18:00Z,29.8672,-93.9310,1.594,1111122 
TCOON,ioos:station:TCOON:524:1,2016-04-04T14:18:00Z,29.8672,-93.9310,1.579,1111122 
TCOON,ioos:station:TCOON:524:1,2016-04-04T15:18:00Z,29.8672,-93.9310,1.593,1111122 
TCOON,ioos:station:TCOON:524:1,2016-04-04T16:18:00Z,29.8672,-93.9310,1.554,1111122 
TCOON,ioos:station:TCOON:524:1,2016-04-04T17:18:00Z,29.8672,-93.9310,1.622,1111122 
TCOON,ioos:station:TCOON:524:1,2016-04-04T18:18:00Z,29.8672,-93.9310,1.648,1111122 
TCOON,ioos:station:TCOON:524:1,2016-04-04T19:18:00Z,29.8672,-93.9310,1.721,1111122 
TCOON,ioos:station:TCOON:524:1,2016-04-04T20:18:00Z,29.8672,-93.9310,1.779,1111122 
TCOON,ioos:station:TCOON:524:1,2016-04-04T21:18:00Z,29.8672,-93.9310,1.704,1111122 
TCOON,ioos:station:TCOON:524:1,2016-04-04T22:18:00Z,29.8672,-93.9310,1.798,1111122 
TCOON,ioos:station:TCOON:524:1,2016-04-04T23:18:00Z,29.8672,-93.9310,1.747,1111122 
TCOON,ioos:station:TCOON:524:1,2016-04-05T00:18:00Z,29.8672,-93.9310,1.749,1111122 
TCOON,ioos:station:TCOON:524:1,2016-04-05T01:18:00Z,29.8672,-93.9310,1.707,1111122 
TCOON,ioos:station:TCOON:524:1,2016-04-05T02:18:00Z,29.8672,-93.9310,1.673,1111122 
TCOON,ioos:station:TCOON:524:1,2016-04-05T03:18:00Z,29.8672,-93.9310,1.684,1111122 
TCOON,ioos:station:TCOON:524:1,2016-04-05T04:24:00Z,29.8672,-93.9310,1.693,1111122 
TCOON,ioos:station:TCOON:524:1,2016-04-05T05:18:00Z,29.8672,-93.9310,1.683,1111122 
TCOON,ioos:station:TCOON:524:1,2016-04-05T06:18:00Z,29.8672,-93.9310,1.716,1111122 
TCOON,ioos:station:TCOON:524:1,2016-04-05T07:18:00Z,29.8672,-93.9310,1.724,1111122 
TCOON,ioos:station:TCOON:524:1,2016-04-05T08:18:00Z,29.8672,-93.9310,1.739,1111122 
TCOON,ioos:station:TCOON:524:1,2016-04-05T17:18:00Z,29.8672,-93.9310,1.529,1111122 
TCOON,ioos:station:TCOON:524:1,2016-04-05T18:24:00Z,29.8672,-93.9310,1.583,1111122 
TCOON,ioos:station:TCOON:524:1,2016-04-05T19:18:00Z,29.8672,-93.9310,1.63,1111122 
TCOON,ioos:station:TCOON:524:1,2016-04-05T20:18:00Z,29.8672,-93.9310,1.7,1111122 
TCOON,ioos:station:TCOON:524:1,2016-04-05T21:18:00Z,29.8672,-93.9310,1.755,1111122 
TCOON,ioos:station:TCOON:524:1,2016-04-05T22:18:00Z,29.8672,-93.9310,1.754,1111122 
TCOON,ioos:station:TCOON:524:1,2016-04-05T23:18:00Z,29.8672,-93.9310,1.735,1111122 
TCOON,ioos:station:TCOON:524:1,2016-04-06T00:18:00Z,29.8672,-93.9310,1.717,1111122 
TCOON,ioos:station:TCOON:524:1,2016-04-06T01:18:00Z,29.8672,-93.9310,1.679,1111122 
TCOON,ioos:station:TCOON:524:1,2016-04-06T02:18:00Z,29.8672,-93.9310,1.629,1111122 
TCOON,ioos:station:TCOON:524:1,2016-04-06T03:18:00Z,29.8672,-93.9310,1.629,1111122 
TCOON,ioos:station:TCOON:524:1,2016-04-06T04:18:00Z,29.8672,-93.9310,1.608,1111122 
TCOON,ioos:station:TCOON:524:1,2016-04-06T05:18:00Z,29.8672,-93.9310,1.667,1111122 
TCOON,ioos:station:TCOON:524:1,2016-04-06T06:18:00Z,29.8672,-93.9310,1.698,1111122 
TCOON,ioos:station:TCOON:524:1,2016-04-06T07:18:00Z,29.8672,-93.9310,1.763,1111122 
TCOON,ioos:station:TCOON:524:1,2016-04-06T08:18:00Z,29.8672,-93.9310,1.813,1111122 
TCOON,ioos:station:TCOON:524:1,2016-04-06T09:18:00Z,29.8672,-93.9310,1.849,1111122 
TCOON,ioos:station:TCOON:524:1,2016-04-06T10:18:00Z,29.8672,-93.9310,1.819,1111122 
TCOON,ioos:station:TCOON:524:1,2016-04-06T11:18:00Z,29.8672,-93.9310,1.825,1111122 
TCOON,ioos:station:TCOON:524:1,2016-04-06T12:18:00Z,29.8672,-93.9310,1.81,1111122 
TCOON,ioos:station:TCOON:524:1,2016-04-06T13:18:00Z,29.8672,-93.9310,1.741,1111122 
TCOON,ioos:station:TCOON:524:1,2016-04-06T14:18:00Z,29.8672,-93.9310,1.693,1111122 
TCOON,ioos:station:TCOON:524:1,2016-04-06T15:18:00Z,29.8672,-93.9310,1.662,1111122 
TCOON,ioos:station:TCOON:524:1,2016-04-06T16:18:00Z,29.8672,-93.9310,1.64,1111122 
TCOON,ioos:station:TCOON:524:1,2016-04-06T17:18:00Z,29.8672,-93.9310,1.657,1111122 
TCOON,ioos:station:TCOON:524:1,2016-04-06T18:18:00Z,29.8672,-93.9310,1.666,1111122 
TCOON,ioos:station:TCOON:524:1,2016-04-06T19:18:00Z,29.8672,-93.9310,1.689,1111122 
TCOON,ioos:station:TCOON:524:1,2016-04-06T20:18:00Z,29.8672,-93.9310,1.728,1111122 
TCOON,ioos:station:TCOON:524:1,2016-04-06T21:18:00Z,29.8672,-93.9310,1.679,1111122 
TCOON,ioos:station:TCOON:524:1,2016-04-06T22:18:00Z,29.8672,-93.9310,1.736,1111122 
TCOON,ioos:station:TCOON:524:1,2016-04-06T23:18:00Z,29.8672,-93.9310,1.777,1111122 
TCOON,ioos:station:TCOON:524:1,2016-04-07T00:18:00Z,29.8672,-93.9310,1.691,1111122 
TCOON,ioos:station:TCOON:524:1,2016-04-07T01:18:00Z,29.8672,-93.9310,1.658,1111122 
TCOON,ioos:station:TCOON:524:1,2016-04-07T02:18:00Z,29.8672,-93.9310,1.672,1111122 
TCOON,ioos:station:TCOON:524:1,2016-04-07T03:18:00Z,29.8672,-93.9310,1.592,1111122 
TCOON,ioos:station:TCOON:524:1,2016-04-07T04:24:00Z,29.8672,-93.9310,1.539,1111122 
TCOON,ioos:station:TCOON:524:1,2016-04-07T05:18:00Z,29.8672,-93.9310,1.524,1111122 
TCOON,ioos:station:TCOON:524:1,2016-04-07T06:24:00Z,29.8672,-93.9310,1.56,1111122 
TCOON,ioos:station:TCOON:524:1,2016-04-07T07:18:00Z,29.8672,-93.9310,1.571,1111122 
TCOON,ioos:station:TCOON:524:1,2016-04-07T08:18:00Z,29.8672,-93.9310,1.596,1111122 
TCOON,ioos:station:TCOON:524:1,2016-04-07T09:18:00Z,29.8672,-93.9310,1.663,1111122 
TCOON,ioos:station:TCOON:524:1,2016-04-07T10:18:00Z,29.8672,-93.9310,1.688,1111122 
TCOON,ioos:station:TCOON:524:1,2016-04-07T11:18:00Z,29.8672,-93.9310,1.708,1111122 
TCOON,ioos:station:TCOON:524:1,2016-04-07T12:18:00Z,29.8672,-93.9310,1.696,1111122 
TCOON,ioos:station:TCOON:524:1,2016-04-07T13:18:00Z,29.8672,-93.9310,1.687,1111122 
TCOON,ioos:station:TCOON:524:1,2016-04-07T14:18:00Z,29.8672,-93.9310,1.608,1111122 
TCOON,ioos:station:TCOON:524:1,2016-04-07T15:18:00Z,29.8672,-93.9310,1.572,1111122 
TCOON,ioos:station:TCOON:524:1,2016-04-07T16:18:00Z,29.8672,-93.9310,1.571,1111122 
TCOON,ioos:station:TCOON:524:1,2016-04-07T17:18:00Z,29.8672,-93.9310,1.57,1111122 
TCOON,ioos:station:TCOON:524:1,2016-04-07T20:18:00Z,29.8672,-93.9310,1.645,1111122 
TCOON,ioos:station:TCOON:524:1,2016-04-07T21:18:00Z,29.8672,-93.9310,1.704,1111122 
TCOON,ioos:station:TCOON:524:1,2016-04-07T22:18:00Z,29.8672,-93.9310,1.731,1111122 
TCOON,ioos:station:TCOON:524:1,2016-04-07T23:18:00Z,29.8672,-93.9310,1.738,1111122 
TCOON,ioos:station:TCOON:524:1,2016-04-08T00:18:00Z,29.8672,-93.9310,1.746,1111122 
TCOON,ioos:station:TCOON:524:1,2016-04-08T01:18:00Z,29.8672,-93.9310,1.704,1111122 
TCOON,ioos:station:TCOON:524:1,2016-04-08T02:18:00Z,29.8672,-93.9310,1.627,1111122 
TCOON,ioos:station:TCOON:524:1,2016-04-08T03:18:00Z,29.8672,-93.9310,1.545,1111122 
TCOON,ioos:station:TCOON:524:1,2016-04-08T04:18:00Z,29.8672,-93.9310,1.512,1111122 
TCOON,ioos:station:TCOON:524:1,2016-04-08T05:18:00Z,29.8672,-93.9310,1.494,1111122 
TCOON,ioos:station:TCOON:524:1,2016-04-08T06:18:00Z,29.8672,-93.9310,1.544,1111122 
TCOON,ioos:station:TCOON:524:1,2016-04-08T07:18:00Z,29.8672,-93.9310,1.593,1111122 
TCOON,ioos:station:TCOON:524:1,2016-04-08T08:18:00Z,29.8672,-93.9310,1.627,1111122 
TCOON,ioos:station:TCOON:524:1,2016-04-08T09:18:00Z,29.8672,-93.9310,1.705,1111122 
TCOON,ioos:station:TCOON:524:1,2016-04-08T10:18:00Z,29.8672,-93.9310,1.786,1111122 
TCOON,ioos:station:TCOON:524:1,2016-04-08T11:18:00Z,29.8672,-93.9310,1.782,1111122 
TCOON,ioos:station:TCOON:524:1,2016-04-08T12:18:00Z,29.8672,-93.9310,1.797,1111122 
TCOON,ioos:station:TCOON:524:1,2016-04-08T13:18:00Z,29.8672,-93.9310,1.813,1111122 
TCOON,ioos:station:TCOON:524:1,2016-04-08T14:18:00Z,29.8672,-93.9310,1.764,1111122 
TCOON,ioos:station:TCOON:524:1,2016-04-08T15:18:00Z,29.8672,-93.9310,1.669,1111122 
TCOON,ioos:station:TCOON:524:1,2016-04-08T16:18:00Z,29.8672,-93.9310,1.654,1111122 
TCOON,ioos:station:TCOON:524:1,2016-04-08T17:18:00Z,29.8672,-93.9310,1.594,1111122 
TCOON,ioos:station:TCOON:524:1,2016-04-08T18:18:00Z,29.8672,-93.9310,1.615,1111122 
TCOON,ioos:station:TCOON:524:1,2016-04-08T19:18:00Z,29.8672,-93.9310,1.648,1111122 
TCOON,ioos:station:TCOON:524:1,2016-04-08T20:18:00Z,29.8672,-93.9310,1.678,1111122 
TCOON,ioos:station:TCOON:524:1,2016-04-08T21:18:00Z,29.8672,-93.9310,1.708,1111122 
TCOON,ioos:station:TCOON:524:1,2016-04-08T22:18:00Z,29.8672,-93.9310,1.754,1111122 
TCOON,ioos:station:TCOON:524:1,2016-04-08T23:18:00Z,29.8672,-93.9310,1.769,1111122 
TCOON,ioos:station:TCOON:524:1,2016-04-09T00:18:00Z,29.8672,-93.9310,1.731,1111122 
TCOON,ioos:station:TCOON:524:1,2016-04-09T01:18:00Z,29.8672,-93.9310,1.734,1111122 
TCOON,ioos:station:TCOON:524:1,2016-04-09T02:18:00Z,29.8672,-93.9310,1.671,1111122 
TCOON,ioos:station:TCOON:524:1,2016-04-09T03:18:00Z,29.8672,-93.9310,1.562,1111122 
TCOON,ioos:station:TCOON:524:1,2016-04-09T04:18:00Z,29.8672,-93.9310,1.504,1111122 
TCOON,ioos:station:TCOON:524:1,2016-04-09T05:18:00Z,29.8672,-93.9310,1.399,1111122 
TCOON,ioos:station:TCOON:524:1,2016-04-09T06:18:00Z,29.8672,-93.9310,1.434,1111122 
TCOON,ioos:station:TCOON:524:1,2016-04-09T07:18:00Z,29.8672,-93.9310,1.48,1111122 
TCOON,ioos:station:TCOON:524:1,2016-04-09T08:18:00Z,29.8672,-93.9310,1.533,1111122 
TCOON,ioos:station:TCOON:524:1,2016-04-09T09:18:00Z,29.8672,-93.9310,1.648,1111122 
TCOON,ioos:station:TCOON:524:1,2016-04-09T10:18:00Z,29.8672,-93.9310,1.699,1111122 
TCOON,ioos:station:TCOON:524:1,2016-04-09T11:18:00Z,29.8672,-93.9310,1.747,1111122 
TCOON,ioos:station:TCOON:524:1,2016-04-09T12:18:00Z,29.8672,-93.9310,1.787,1111122 
TCOON,ioos:station:TCOON:524:1,2016-04-09T13:18:00Z,29.8672,-93.9310,1.786,1111122 
TCOON,ioos:station:TCOON:524:1,2016-04-09T14:18:00Z,29.8672,-93.9310,1.78,1111122 
TCOON,ioos:station:TCOON:524:1,2016-04-09T15:18:00Z,29.8672,-93.9310,1.821,1111122 
TCOON,ioos:station:TCOON:524:1,2016-04-09T16:18:00Z,29.8672,-93.9310,1.775,1111122 
TCOON,ioos:station:TCOON:524:1,2016-04-09T17:18:00Z,29.8672,-93.9310,1.748,1111122 
TCOON,ioos:station:TCOON:524:1,2016-04-09T18:18:00Z,29.8672,-93.9310,1.729,1111122 
TCOON,ioos:station:TCOON:524:1,2016-04-09T19:18:00Z,29.8672,-93.9310,1.789,1111122 
TCOON,ioos:station:TCOON:524:1,2016-04-09T20:12:00Z,29.8672,-93.9310,1.784,1111122 
TCOON,ioos:station:TCOON:524:1,2016-04-09T21:18:00Z,29.8672,-93.9310,1.917,1111122 
TCOON,ioos:station:TCOON:524:1,2016-04-09T22:18:00Z,29.8672,-93.9310,1.918,1111122 
TCOON,ioos:station:TCOON:524:1,2016-04-09T23:18:00Z,29.8672,-93.9310,1.92,1111122 
TCOON,ioos:station:TCOON:524:1,2016-04-10T00:18:00Z,29.8672,-93.9310,1.953,1111122 
TCOON,ioos:station:TCOON:524:1,2016-04-10T01:18:00Z,29.8672,-93.9310,1.902,1111122 
TCOON,ioos:station:TCOON:524:1,2016-04-10T02:18:00Z,29.8672,-93.9310,1.856,1111122 
TCOON,ioos:station:TCOON:524:1,2016-04-10T03:18:00Z,29.8672,-93.9310,1.747,1111122 
TCOON,ioos:station:TCOON:524:1,2016-04-10T04:18:00Z,29.8672,-93.9310,1.672,1111122 
TCOON,ioos:station:TCOON:524:1,2016-04-10T05:18:00Z,29.8672,-93.9310,1.635,1111122 
TCOON,ioos:station:TCOON:524:1,2016-04-10T06:18:00Z,29.8672,-93.9310,1.629,1111122 
TCOON,ioos:station:TCOON:524:1,2016-04-10T07:18:00Z,29.8672,-93.9310,1.663,1111122 
TCOON,ioos:station:TCOON:524:1,2016-04-10T08:18:00Z,29.8672,-93.9310,1.692,1111122 
TCOON,ioos:station:TCOON:524:1,2016-04-10T09:18:00Z,29.8672,-93.9310,1.731,1111122 
TCOON,ioos:station:TCOON:524:1,2016-04-10T10:18:00Z,29.8672,-93.9310,1.804,1111122 
TCOON,ioos:station:TCOON:524:1,2016-04-10T11:18:00Z,29.8672,-93.9310,1.917,1111122 
TCOON,ioos:station:TCOON:524:1,2016-04-10T12:18:00Z,29.8672,-93.9310,1.942,1111122 
TCOON,ioos:station:TCOON:524:1,2016-04-10T13:18:00Z,29.8672,-93.9310,1.935,1111122 
TCOON,ioos:station:TCOON:524:1,2016-04-10T14:18:00Z,29.8672,-93.9310,1.976,1111122 
TCOON,ioos:station:TCOON:524:1,2016-04-10T15:18:00Z,29.8672,-93.9310,1.978,1111122 
TCOON,ioos:station:TCOON:524:1,2016-04-10T16:18:00Z,29.8672,-93.9310,1.961,1111122 
TCOON,ioos:station:TCOON:524:1,2016-04-10T17:18:00Z,29.8672,-93.9310,1.95,1111122 
TCOON,ioos:station:TCOON:524:1,2016-04-10T18:18:00Z,29.8672,-93.9310,1.937,1111122 
TCOON,ioos:station:TCOON:524:1,2016-04-10T19:18:00Z,29.8672,-93.9310,1.907,1111122 
TCOON,ioos:station:TCOON:524:1,2016-04-10T20:18:00Z,29.8672,-93.9310,1.97,1111122 
TCOON,ioos:station:TCOON:524:1,2016-04-10T21:18:00Z,29.8672,-93.9310,1.953,1111122 
TCOON,ioos:station:TCOON:524:1,2016-04-10T22:18:00Z,29.8672,-93.9310,1.971,1111122 
TCOON,ioos:station:TCOON:524:1,2016-04-10T23:18:00Z,29.8672,-93.9310,1.989,1111122 
TCOON,ioos:station:TCOON:524:1,2016-04-11T00:18:00Z,29.8672,-93.9310,1.993,1111122 
TCOON,ioos:station:TCOON:524:1,2016-04-11T01:18:00Z,29.8672,-93.9310,1.93,1111122 
TCOON,ioos:station:TCOON:524:1,2016-04-11T02:18:00Z,29.8672,-93.9310,1.948,1111122 
TCOON,ioos:station:TCOON:524:1,2016-04-11T03:18:00Z,29.8672,-93.9310,1.91,1111122 
TCOON,ioos:station:TCOON:524:1,2016-04-11T04:18:00Z,29.8672,-93.9310,1.837,1111122 
TCOON,ioos:station:TCOON:524:1,2016-04-11T05:18:00Z,29.8672,-93.9310,1.738,1111122 
TCOON,ioos:station:TCOON:524:1,2016-04-11T06:18:00Z,29.8672,-93.9310,1.652,1111122 
TCOON,ioos:station:TCOON:524:1,2016-04-11T07:18:00Z,29.8672,-93.9310,1.73,1111122 
TCOON,ioos:station:TCOON:524:1,2016-04-11T08:18:00Z,29.8672,-93.9310,1.703,1111122 
TCOON,ioos:station:TCOON:524:1,2016-04-11T09:18:00Z,29.8672,-93.9310,1.723,1111122 
TCOON,ioos:station:TCOON:524:1,2016-04-11T10:18:00Z,29.8672,-93.9310,1.763,1111122 
TCOON,ioos:station:TCOON:524:1,2016-04-11T11:12:00Z,29.8672,-93.9310,1.769,1111122 
TCOON,ioos:station:TCOON:524:1,2016-04-11T12:18:00Z,29.8672,-93.9310,1.903,1111122 
TCOON,ioos:station:TCOON:524:1,2016-04-11T13:18:00Z,29.8672,-93.9310,1.912,1111122 
TCOON,ioos:station:TCOON:524:1,2016-04-11T14:18:00Z,29.8672,-93.9310,2.03,1111122 
TCOON,ioos:station:TCOON:524:1,2016-04-11T15:18:00Z,29.8672,-93.9310,2.023,1111122 
TCOON,ioos:station:TCOON:524:1,2016-04-11T16:18:00Z,29.8672,-93.9310,2.032,1111122 
TCOON,ioos:station:TCOON:524:1,2016-04-11T17:18:00Z,29.8672,-93.9310,2.027,1111122 
TCOON,ioos:station:TCOON:524:1,2016-04-11T18:18:00Z,29.8672,-93.9310,2.042,1111122 
TCOON,ioos:station:TCOON:524:1,2016-04-11T19:18:00Z,29.8672,-93.9310,2.033,1111122 
TCOON,ioos:station:TCOON:524:1,2016-04-11T20:18:00Z,29.8672,-93.9310,2.001,1111122 
TCOON,ioos:station:TCOON:524:1,2016-04-11T21:18:00Z,29.8672,-93.9310,1.946,1111122 
TCOON,ioos:station:TCOON:524:1,2016-04-11T22:18:00Z,29.8672,-93.9310,1.954,1111122 
TCOON,ioos:station:TCOON:524:1,2016-04-11T23:18:00Z,29.8672,-93.9310,1.953,1111122 
TCOON,ioos:station:TCOON:524:1,2016-04-12T00:18:00Z,29.8672,-93.9310,1.939,1111122 
TCOON,ioos:station:TCOON:524:1,2016-04-12T01:18:00Z,29.8672,-93.9310,1.947,1111122 
TCOON,ioos:station:TCOON:524:1,2016-04-12T02:18:00Z,29.8672,-93.9310,1.901,1111122 
TCOON,ioos:station:TCOON:524:1,2016-04-12T03:18:00Z,29.8672,-93.9310,1.863,1111122 
TCOON,ioos:station:TCOON:524:1,2016-04-12T04:18:00Z,29.8672,-93.9310,1.835,1111122 
TCOON,ioos:station:TCOON:524:1,2016-04-12T05:18:00Z,29.8672,-93.9310,1.763,1111122 
TCOON,ioos:station:TCOON:524:1,2016-04-12T06:18:00Z,29.8672,-93.9310,1.647,1111122 
TCOON,ioos:station:TCOON:524:1,2016-04-12T07:18:00Z,29.8672,-93.9310,1.636,1111122 
TCOON,ioos:station:TCOON:524:1,2016-04-12T08:18:00Z,29.8672,-93.9310,1.631,1111122 
TCOON,ioos:station:TCOON:524:1,2016-04-12T09:18:00Z,29.8672,-93.9310,1.587,1111122 
TCOON,ioos:station:TCOON:524:1,2016-04-12T10:18:00Z,29.8672,-93.9310,1.627,1111122 
TCOON,ioos:station:TCOON:524:1,2016-04-12T11:12:00Z,29.8672,-93.9310,1.684,1111122 
TCOON,ioos:station:TCOON:524:1,2016-04-12T12:18:00Z,29.8672,-93.9310,1.71,1111122 
TCOON,ioos:station:TCOON:524:1,2016-04-12T13:12:00Z,29.8672,-93.9310,1.786,1111122 
TCOON,ioos:station:TCOON:524:1,2016-04-12T14:18:00Z,29.8672,-93.9310,1.87,1111122 
TCOON,ioos:station:TCOON:524:1,2016-04-12T15:18:00Z,29.8672,-93.9310,1.898,1111122 
TCOON,ioos:station:TCOON:524:1,2016-04-12T16:18:00Z,29.8672,-93.9310,1.914,1111122 
TCOON,ioos:station:TCOON:524:1,2016-04-12T17:24:00Z,29.8672,-93.9310,1.924,1111122 
TCOON,ioos:station:TCOON:524:1,2016-04-12T18:18:00Z,29.8672,-93.9310,1.917,1111122 
TCOON,ioos:station:TCOON:524:1,2016-04-12T19:18:00Z,29.8672,-93.9310,1.905,1111122 
TCOON,ioos:station:TCOON:524:1,2016-04-12T20:18:00Z,29.8672,-93.9310,1.889,1111122 
TCOON,ioos:station:TCOON:524:1,2016-04-12T21:18:00Z,29.8672,-93.9310,1.845,1111122 
TCOON,ioos:station:TCOON:524:1,2016-04-12T22:18:00Z,29.8672,-93.9310,1.846,1111122 
TCOON,ioos:station:TCOON:524:1,2016-04-12T23:18:00Z,29.8672,-93.9310,1.856,1111122 
TCOON,ioos:station:TCOON:524:1,2016-04-13T00:18:00Z,29.8672,-93.9310,1.841,1111122 
TCOON,ioos:station:TCOON:524:1,2016-04-13T01:18:00Z,29.8672,-93.9310,1.874,1111122 
TCOON,ioos:station:TCOON:524:1,2016-04-13T02:18:00Z,29.8672,-93.9310,1.858,1111122 
TCOON,ioos:station:TCOON:524:1,2016-04-13T03:24:00Z,29.8672,-93.9310,1.828,1111122 
TCOON,ioos:station:TCOON:524:1,2016-04-13T04:18:00Z,29.8672,-93.9310,1.772,1111122 
TCOON,ioos:station:TCOON:524:1,2016-04-13T05:18:00Z,29.8672,-93.9310,1.714,1111122 
TCOON,ioos:station:TCOON:524:1,2016-04-13T06:18:00Z,29.8672,-93.9310,1.675,1111122 